Time,TemperatureF,DewpointF,PressureIn,WindDirection,WindDirectionDegrees,WindSpeedMPH,WindSpeedGustMPH,Humidity,HourlyPrecipIn,Conditions,Clouds,dailyrainin,SoftwareType,DateUTC
2013-08-28 12:14:00,76.0,69.0,30.00,NE,55,4.0,7.0,78,0.00,,,0.00,,2013-08-28 17:14:00,
2013-08-28 12:24:00,77.0,69.0,30.00,NE,38,3.0,6.0,77,0.00,,,0.00,,2013-08-28 17:24:00,
2013-08-28 12:52:00,78.0,69.0,30.00,ENE,63,0.0,5.0,74,0.00,,,0.00,,2013-08-28 17:52:00,
2013-08-28 13:12:00,79.0,70.0,30.00,ENE,61,1.0,5.0,73,0.00,,,0.00,,2013-08-28 18:12:00,
2013-08-28 13:22:00,81.0,70.0,29.99,North,355,2.0,6.0,70,0.00,,,0.00,,2013-08-28 18:22:00,
2013-08-28 13:53:00,81.0,69.0,29.99,North,350,5.0,12.0,68,0.00,,,0.00,,2013-08-28 18:53:00,
2013-08-28 14:12:00,82.0,69.0,30.00,WNW,282,2.0,8.0,66,0.00,,,0.00,,2013-08-28 19:12:00,
2013-08-28 14:22:00,82.0,70.0,30.00,NE,48,1.0,6.0,67,0.00,,,0.00,,2013-08-28 19:22:00,
2013-08-28 14:52:00,82.0,69.0,29.99,NE,55,2.0,6.0,66,0.00,,,0.00,,2013-08-28 19:52:00,
2013-08-28 15:12:00,83.0,70.0,29.99,ENE,65,5.0,8.0,66,0.00,,,0.00,,2013-08-28 20:12:00,
2013-08-28 15:23:00,82.0,70.0,29.99,ENE,72,3.0,6.0,67,0.00,,,0.00,,2013-08-28 20:23:00,
2013-08-28 15:52:00,83.0,70.0,29.99,NE,42,4.0,8.0,66,0.00,,,0.00,,2013-08-28 20:52:00,
2013-08-28 16:12:00,83.0,70.0,29.99,NW,325,2.0,6.0,65,0.00,,,0.00,,2013-08-28 21:12:00,
2013-08-28 16:22:00,84.0,70.0,29.99,NE,51,3.0,7.0,64,0.00,,,0.00,,2013-08-28 21:22:00,
2013-08-28 16:57:00,83.0,70.0,29.99,ENE,64,1.0,6.0,66,0.00,,,0.00,,2013-08-28 21:57:00,
2013-08-28 17:15:00,83.0,70.0,29.99,NNE,26,2.0,7.0,65,0.00,,,0.00,,2013-08-28 22:15:00,
2013-08-28 17:25:00,83.0,70.0,29.99,NE,45,3.0,7.0,66,0.00,,,0.00,,2013-08-28 22:25:00,
2013-08-28 17:54:00,83.0,70.0,30.00,NE,49,2.0,6.0,66,0.00,,,0.00,,2013-08-28 22:54:00,
2013-08-28 18:13:00,83.0,71.0,30.00,North,9,2.0,9.0,67,0.00,,,0.00,,2013-08-28 23:13:00,
2013-08-28 18:22:00,82.0,70.0,30.00,NNE,21,2.0,5.0,68,0.00,,,0.00,,2013-08-28 23:22:00,
2013-08-28 18:53:00,80.0,70.0,30.00,NE,52,0.0,3.0,71,0.00,,,0.00,,2013-08-28 23:53:00,
2013-08-28 19:11:00,80.0,70.0,30.01,NE,52,0.0,4.0,72,0.00,,,0.00,,2013-08-29 00:11:00,
2013-08-28 20:12:00,78.0,70.0,30.01,NNE,28,0.0,1.0,76,0.00,,,0.00,,2013-08-29 01:12:00,
2013-08-28 20:22:00,77.0,70.0,30.01,NNE,28,0.0,1.0,78,0.00,,,0.00,,2013-08-29 01:22:00,
2013-08-28 20:42:00,76.0,69.0,30.02,NNE,28,0.0,2.0,80,0.00,,,0.00,,2013-08-29 01:42:00,
2013-08-28 20:52:00,76.0,70.0,30.02,NE,34,0.0,4.0,81,0.00,,,0.00,,2013-08-29 01:52:00,
2013-08-28 21:11:00,75.0,69.0,30.03,NNE,33,0.0,4.0,82,0.00,,,0.00,,2013-08-29 02:11:00,
2013-08-28 21:22:00,75.0,69.0,30.03,NE,34,0.0,2.0,83,0.00,,,0.00,,2013-08-29 02:22:00,
2013-08-28 22:11:00,73.0,69.0,30.03,NE,36,0.0,1.0,86,0.00,,,0.00,,2013-08-29 03:11:00,
2013-08-28 22:23:00,73.0,69.0,30.03,NE,48,0.0,1.0,86,0.00,,,0.00,,2013-08-29 03:23:00,
2013-08-28 22:57:00,72.0,68.0,30.04,NE,48,0.0,0.0,86,0.00,,,0.00,,2013-08-29 03:57:00,
2013-08-28 23:18:00,71.0,67.0,30.03,NE,48,0.0,0.0,87,0.00,,,0.00,,2013-08-29 04:18:00,
2013-08-28 23:28:00,70.0,66.0,30.03,NE,48,0.0,0.0,88,0.00,,,0.00,,2013-08-29 04:28:00,
2013-08-28 23:54:00,69.0,66.0,30.03,NE,48,0.0,0.0,89,0.00,,,0.00,,2013-08-29 04:54:00,